FENGYUN 1C DEB

Satellite information

Favourite Embed

Satellite Type and Status

DEBRISIN ORBIT

Key statistics

Satellite FENGYUN 1C DEB at a glance.

Uptime

9665

Days in orbit

Revolutions

≈ 14.2

Per day

Orbit

SSO

Sun Synchronous Orbit

Inclination

99.3

Latest

Satellite identification and parameters

Extended collection of information and parameters for FENGYUN 1C DEB.

Object identification

Identified? True

Debris? True

Object name: FENGYUN 1C DEB

International designator: 1999-025BYC

Object number (NORAD): 31537

Object ID (CCSDS): 31537

Country: PEOPLES REPUBLIC OF CHINA (PRC)

Current information (Y/N): Y

RCS size: SMALL

Orbital parameters

Period: 101.464 minutes

Inclination: 99.2945 deg

SMA: 7206.097 km

Apoapsis: 1082.622 km

Periapsis: 573.303 km

RAAN: 88.2645 deg

Eccentricy: 0.03533948

Argument of periapsis: 103.7611 deg

Mean anomaly: 260.3153 deg

Mean motion: 14.19229341 rev/day

Mean motion (dot): 0.00015276 rev/day2

B* drag term: 0.0038983462 1/REarth

Two-line elements (TLE)

Creation date: Oct. 25, 2025, 3:11 a.m.

Reference frame: TEME

Reference center: EARTH

Epoch: Oct. 24, 2025, 4:01 p.m. UTC

TLE line 0: 0 FENGYUN 1C DEB

TLE line 1: 1 31537U 99025BYC 25297.66789918 .00015276 00000-0 38983-2 0 9997

TLE line 2: 2 31537 99.2945 88.2645 0353395 103.7611 260.3153 14.19229341925854

Live tracking on map

Real-time ground track for satellite FENGYUN 1C DEB.

In-orbit conjunctions

A list of the most updated potential collisions computed for object FENGYUN 1C DEB.

Target Orbit TCA Probability of collision Miss distance Type
COSMOS 2251 DEB LEO 2025-07-30 09:49:30 0.000234343 162.0 (m) DEBRIS
DELTA 1 R/B SSO 2024-07-07 07:10:22 0.0002091142 261.0 (m) ROCKET BODY

Associated space launch

Chinese polar orbiting meteorological satellite

FENGYUN 1C DEB was lifted into orbit during the mission ‘Long March 4B | Feng Yun 1C’, on board a Long March 4B space rocket.

The launch took place on May 10, 1999, 1:33 a.m. from Launch Complex 7.

For more information about the launch, click the button.

Launch to space Long March 4B | Feng Yun 1C
Long March 4B | Feng Yun 1C

Agency: N/A

Status: Launch Successful

Launch date: May 10, 1999, 1:33 a.m. UTC

Rocket: Long March 4B

Launch pad: Launch Complex 7

Location: Taiyuan Satellite Launch Center, People's Republic of China

...

Latest news about this satellite

There are no fresh news available about this satellite. Check back as we update our databases every day.


Newsletter sign-up

Weekly statistics, charts and insights to help you stay on top of the space industry.